Location: Ellerstadt
(49.4644°N, 8.2615°E)
Time: 01:00:13
(UTC+00:00)

ISS - Pass Details

Date: 20 May 2021
Orbit: 417 x 422 km, 51.6° (Epoch: 15 June)

Event Time Altitude Azimuth Distance (km) Brightness Sun altitude
Rises 22:30:58 0° 286° (WNW) 2,370 0.5 -19.4°
Reaches altitude 10° 22:33:05 10° 288° (WNW) 1,505 -0.6 -19.5°
Maximum altitude 22:36:27 77° 15° (NNE) 436 -3.7 -19.6°
Enters shadow 22:37:05 55° 87° (E) 513 -3.5 -19.6°
